Change the Weather History Date:

Tuesday, January 15, 2013

  Actual Average Record
Temperature  
Mean Temperature 32 °F 30 °F  
Max Temperature 36 °F 35 °F 46 °F (1979)
Min Temperature 27 °F 26 °F 2 °F (1970)
Degree Days  
Heating Degree Days 33 35  
Month to date heating degree days 451 513  
Since 1 July heating degree days 4490 4354  
Cooling Degree Days 0    
Month to date cooling degree days 0  
Year to date cooling degree days 0  
Moisture  
Dew Point 26 °F    
Average Humidity 0    
Maximum Humidity 0    
Minimum Humidity 0    
Precipitation  
Precipitation 0.00 in 0.27 in 2.14 in (1982)
Month to date precipitation 2.74 4.15  
Year to date precipitation 2.74 4.15  
Snow  
Snow 0.00 in 0.40 in 9.00 in (1971)
Month to date snowfall 3.5 5.7  
Since 1 July snowfall 19.9 27.0  
Snow Depth 0.00 in    
Sea Level Pressure  
Sea Level Pressure 30.19 in    
Wind  
Wind Speed 4 mph (West)    
Max Wind Speed 9 mph    
Max Gust Speed 10 mph    
Visibility 10 miles    
Events      
T = Trace of Precipitation, MM = Missing Value Source: NWS Daily Summary

Daily Weather History Graph

Daily Weather History Graph

Search for Another Location

Airport or City:

Trip Planner

Search our weather history database for the weather conditions in past years. The results will help you decide how hot, cold, wet, or windy it might be!

Date:

Astronomy

Jan. 15, 2013 Rise Set
Actual Time 9:40 AM AKST 4:58 PM AKST
Civil Twilight 8:53 AM AKST 5:46 PM AKST
Nautical Twilight 8:03 AM AKST 6:36 PM AKST
Astronomical Twilight 7:16 AM AKST 7:22 PM AKST
Moon 10:41 AM AKST (1/15) 11:17 PM AKST (1/15)
Length of Visible Light 8h 52m
Length of Day
7h 17m
Waxing Crescent, 20% of the Moon is Illuminated
Jan 15
Waxing Crescent
Jan 18
First Quarter
Jan 26
Full
Feb 3
Last Quarter
Feb 9
New

Hourly Weather History & Observations

Time (AKST) Temp. Windchill Dew Point Humidity Pressure Visibility Wind Dir Wind Speed Gust Speed Precip Events Conditions
12:53 AM 33.1 °F 26.9 °F 25.0 °F 72% 30.09 in 10.0 mi WNW 6.9 mph - N/A   Scattered Clouds
1:53 AM 33.1 °F 25.5 °F 25.0 °F 72% 30.10 in 10.0 mi WNW 9.2 mph - N/A   Scattered Clouds
3:53 AM 30.0 °F 26.5 °F 24.1 °F 79% 30.12 in 10.0 mi WSW 3.5 mph - N/A   Scattered Clouds
4:53 AM 28.9 °F - 25.0 °F 85% 30.15 in 10.0 mi Calm Calm - N/A   Mostly Cloudy
5:53 AM 28.0 °F 21.7 °F 25.0 °F 88% 30.16 in 10.0 mi West 5.8 mph - N/A   Partly Cloudy
6:53 AM 28.0 °F 24.2 °F 24.1 °F 85% 30.18 in 10.0 mi WNW 3.5 mph - N/A   Scattered Clouds
7:53 AM 28.9 °F 25.2 °F 25.0 °F 85% 30.19 in 10.0 mi West 3.5 mph - N/A   Scattered Clouds
8:53 AM 28.9 °F 23.9 °F 24.1 °F 82% 30.21 in 10.0 mi SW 4.6 mph - N/A   Mostly Cloudy
9:53 AM 30.0 °F 24.1 °F 24.1 °F 79% 30.22 in 10.0 mi SSW 5.8 mph - N/A   Mostly Cloudy
10:53 AM 30.9 °F - 25.0 °F 79% 30.23 in 10.0 mi Calm Calm - N/A   Mostly Cloudy
11:53 AM 33.1 °F 30.0 °F 27.0 °F 78% 30.23 in 10.0 mi NW 3.5 mph - N/A   Mostly Cloudy
12:53 PM 33.1 °F - 27.0 °F 78% 30.22 in 10.0 mi Calm Calm - N/A   Mostly Cloudy
1:53 PM 35.1 °F 32.2 °F 28.0 °F 76% 30.23 in 10.0 mi WNW 3.5 mph - N/A   Mostly Cloudy
2:53 PM 34.0 °F 29.8 °F 27.0 °F 75% 30.22 in 10.0 mi WNW 4.6 mph - N/A   Mostly Cloudy
3:53 PM 34.0 °F 27.2 °F 26.1 °F 73% 30.22 in 10.0 mi NW 8.1 mph - N/A   Mostly Cloudy
4:53 PM 32.0 °F 28.7 °F 26.1 °F 79% 30.23 in 10.0 mi West 3.5 mph - N/A   Mostly Cloudy
5:53 PM 30.0 °F 25.2 °F 27.0 °F 88% 30.23 in 10.0 mi West 4.6 mph - N/A   Mostly Cloudy
6:53 PM 28.9 °F - 27.0 °F 92% 30.22 in 10.0 mi Calm Calm - N/A   Mostly Cloudy
7:53 PM 28.0 °F - 26.1 °F 92% 30.20 in 10.0 mi Calm Calm - N/A   Mostly Cloudy
9:53 PM 28.9 °F 22.8 °F 27.0 °F 92% 30.17 in 10.0 mi WNW 5.8 mph - N/A   Overcast
10:53 PM 28.9 °F 21.9 °F 27.0 °F 92% 30.16 in 10.0 mi West 6.9 mph - N/A   Overcast
11:53 PM 30.0 °F 24.1 °F 28.0 °F 92% 30.15 in 10.0 mi West 5.8 mph - N/A   Overcast